星链-2346 (STARLINK-2346 )

导读

STARLINK-2346是美国于2021年3月14日发射的SpaceX星链卫星,属于星链星座组网卫星,星链项目旨在构建全球卫星互联网星座,为全球提供高速低延迟互联网服务,该卫星随当时批次发射入轨,承担太空互联网接入任务,延续星链的全球网络部署进程。

Basic Information
目录编号:
47887
目录名称:
STARLINK-2346
国际标识:
2021-021AD
轨道中心:
EARTH
卫星名称:
星链-2346
卫星全名:
星链-2346 (STARLINK-2346 )
卫星状态:
在轨 (已飞行1922 天)
发射日期:
2021-03-14 UTC
国别 :
美国 (US)
星等 :
--
Orbit Information
数据来源 国际轨道数据 AOE轨道数据
星历时间 2026-06-17T15:21:40+0800
1天前
查看轨道信息
2026-06-17T01:00:00+0800
2天前
查看轨道信息
半长轴 6848.848km 6848.821km
偏心率 0.0001222 0.0001451
轨道倾角 53.159° 53.158°
近地点辐角 89.692° 84.323°
升交点赤经 177.549° 180.338°
平近点角 270.422° 214.386°
近地点 469.874km 469.69km
远地点 471.548km 471.678km
周期 94.013分钟 94.012分钟
每日圈数 15.317099 15.317189
Detailed Information
固有亮度:
5
最大亮度:
2.5
卫星平台:
Starlink V1.0
覆盖范围:
全球
运营商:
太空探索技术公司
运营商所在国:
美国
制造商(研发单位):
太空探索技术公司
制造商所在国:
美国
使用方式:
暂无
Satellite Introduction
星链(Starlink)计划是由太空探索技术公司(SpaceX)提出的一个巨型低轨卫星互联网星座项目,计划在2019年至2024年间在太空搭建由约1.2万颗卫星组成的“星链”网络,其中1584颗将部署在地球上空550千米处的近地轨道,并从2020年开始工作。该卫星仍在工作。
2D Orbit Map
3D Orbit Map
Orbit Altitude Analysis Chart
Orbit Inclination Analysis Chart
Orbit Comprehensive Analysis Chart
View Comprehensive Chart